STARLINK-37795, 69311

Orbit data source: Space-Track

STARLINK-37795, 69311 is a payload satellite owned by SpaceX/Seattle (US) in SSO that was launched on Sat, 30 May 2026 UTC via an FALCON 9 launch vehicle from the Air Force Western Test Range (AFWTR). Payload-class satellites include a variety of spacecraft equipped with specific instruments for various scientific and technological missions. These include communications satellites like Starlink; space stations such as the ISS; scientific satellites like the Hubble; Earth observation satellites from companies like Planet Labs, Umbra, and HawkEye 360; GPS; miniature CubeSats for education and research; and military/defense satellites.

Loading next visibility...
Identifier
69311, 2026-119R
Orbit
SSO
Country
Flag of USUS
Related business
Manufacturer
SpaceX/Seattle
Mission
Operational spacecraft
Bus & Motor
STARLINK V2MO, Unknown motor
Mass
575 kg wet, ~530 kg dry
Launch date (UTC)
2026-05-30 (2 months ago)
Launch vehicle
FALCON 9
Launch site
Air Force Western Test Range (AFWTR)
Object type
Payload
Rocket body
Debris
Shape & HBR
Unknown shape, 17.7 m
Radar Cross Section
Large (>1 m²)

Expand to show TLE details & history
Last TLE update: 16 hours ago

TLE from 16 hours ago
0 STARLINK-37795
1 69311U 26119R   26202.01922433  .00013458  00000-0  41829-3 0  9993
2 69311  97.2849 227.6633 0001606  94.4574 265.6853 15.33456619  9249
Epoch: 2026-07-21T00:27Z
TLE epoch observation values (Epoch: 2026-07-21T00:27:40.982Z)
Latitude
0.00008°
Longitude
-78.0524°
Altitude
468.703 km
Speed
7.632 km/s
True Right ascension
15h 10m 39s
True Declination
0° 00' 00"
Sunlit
Object was in daylight at epoch
Visualization orbit readout
Latitude
Unknown
Longitude
Unknown
Altitude
Unknown
Speed
Unknown
Apparent Right ascension
Unknown
Apparent Declination
Unknown
Sunlit
N/A
Visualization observer readout
Local Sidereal Time
05:31:35
Azimuth
Unknown
Elevation
Unknown
Doppler factor
Unknown
Orbital elements
Apogee altitude
463.55 km
Perigee altitude
461.353 km
Semi-major axis
6,840.588 km
Eccentricity
0.00016
Inclination
97.2849°
RAAN
227.6633°
Arg. of periapsis
94.4574°
True anomaly
265.66695°
Mean anomaly
265.6853°
Eccentric anomaly
265.67612°
Mean motion
3.83622 °/min
Orbital period
93.84 mins
BSTAR
0.00041829
Loading maneuver chart data...
Computing Atmospheric mass density...
Loading historical data...
Loading historical data...
Loading historical data...
Loading historical data...
Loading historical data...
Loading historical data...
Loading historical data...

Documentation

Showing up to 5 results
|